星链-34560 (STARLINK-34560)

导读

STARLINK-34560是美国于2025年6月28日发射的星链卫星,星链是美国太空探索技术公司打造的低轨卫星互联网星座项目,旨在为全球提供高速低延迟互联网服务。该卫星属于星链星座扩容的组成部分,将进一步补全全球卫星互联网覆盖网络,提升星座服务的稳定性与容量。

基本信息
目录编号:
64700
目录名称:
STARLINK-34560
国际标识:
2025-142E
轨道中心:
EARTH
卫星名称:
星链-34560
卫星全名:
星链-34560 (STARLINK-34560)
卫星状态:
在轨 (已飞行350 天)
发射日期:
2025-06-28 UTC
国别 :
美国 (US)
星等 :
--
轨道信息
数据来源 国际轨道数据
星历时间: 2026-06-13T11:20:31+0800
18小时前
查看轨道信息
半长轴: 6950.252km
偏心率: 0.0003093
轨道倾角: 70.002°
近地点辐角 268.935°
升交点赤经 73.948°
平近点角 91.145°
近地点: 569.965km
远地点: 574.265km
周期: 96.108分钟
每日圈数: 14.983109
详细信息
固有亮度:
5
最大亮度:
2.5
卫星平台:
Starlink V1.0
覆盖范围:
全球
运营商:
太空探索技术公司
运营商所在国:
美国
制造商(研发单位):
太空探索技术公司
制造商所在国:
美国
使用方式:
暂无
卫星简介
Starlink 计划是 SpaceX 推出的全球卫星互联网项目,通过发射低轨道卫星,为全球尤其是偏远地区提供高速、低延迟的互联网服务。自 2019 年起,Starlink 已部署数千颗卫星,旨在缩小全球数字鸿沟,推动互联网普及。该项目还为军事、航空等行业提供通信支持,带来广泛经济效益。
2D轨道图
3D轨道图
轨道高度分析图
轨道倾角分析图
轨道综合分析图
查看轨道综合分析图